Dewpoint
38 42 46 46 50 52 53 54 57 58 58 59 56 53 63 65 65 64 66 66 66 67 66 67 66 66 66 66 64 65 64 64
42 46 48 48 50 50 50 53 55 54 54 54 55 54 54 62 63 66 66 66 66 66 66 68 66 65 65 65 65 65 64 65
41 43 45 47 47 48 48 48 49 50 50 51 53 54 55 55 56 59 64 66 66 66 66 66 67 65 64 65 66 64 64 65
39 40 43 46 46 47 45 46 47 48 50 48 50 52 54 55 53 53 61 64 67 66 66 66 66 65 64 63 65 64 62 63
38 39 40 42 44 46 45 46 45 45 47 47 48 48 49 51 52 54 56 60 60 66 65 66 66 66 64 63 65 64 62 61
38 37 37 38 42 43 45 44 43 43 45 46 46 46 47 48 49 51 53 57 59 63 65 66 66 66 65 63 63 64 63 61
37 37 37 37 40 42 43 42 41 42 43 43 44 44 44 45 47 48 51 53 57 62 63 65 65 65 65 64 64 64 62 62
34 34 34 37 38 39 39 40 39 40 40 40 41 41 42 42 43 46 48 50 54 59 62 64 64 65 65 65 65 64 63 62
33 33 35 35 37 37 38 37 37 37 37 38 38 39 39 41 42 44 46 49 51 55 61 62 64 63 64 64 64 64 64 63
31 31 34 35 35 36 37 36 35 36 37 37 37 38 38 39 40 42 44 47 49 53 57 62 63 64 63 64 64 64 64 63
30 31 34 34 34 33 35 35 34 34 35 35 35 37 38 39 41 43 44 45 48 52 54 60 64 64 64 64 64 63 63 63
30 31 32 32 32 32 33 33 33 32 33 33 35 36 37 40 41 43 45 48 49 51 54 59 62 63 63 64 63 62 62 62
29 30 31 31 30 30 31 32 32 32 32 33 34 35 36 38 39 41 44 48 55 53 56 59 61 62 62 63 62 62 62 61
29 30 30 30 30 30 31 32 31 31 31 32 33 34 34 36 38 39 41 46 49 57 59 59 60 61 61 63 62 62 62 62
28 29 29 29 30 29 31 33 32 31 31 32 32 32 33 34 36 37 37 39 41 43 53 57 59 61 62 62 62 62 61 61
27 27 28 27 28 30 31 32 33 33 32 31 31 32 32 33 34 34 34 34 37 39 39 40 44 46 49 59 61 61 61 56
26 27 28 28 29 31 31 32 32 33 33 32 32 32 31 30 31 31 32 32 31 34 36 37 36 36 38 43 56 60 54 48
27 28 30 29 30 31 30 31 32 32 32 32 32 32 31 30 29 29 28 29 30 30 31 34 34 35 36 39 41 44 44 45
27 29 29 30 31 31 32 32 31 31 31 31 32 32 32 31 30 29 28 28 27 28 28 30 31 34 36 35 35 35 35 34
Lifted_Index
5 6 5 4 4 4 4 4 3 3 2 1 0 -2 -4 -6 -7 -7 -8 -8 -8 -8 -8 -8 -8 -8 -7 -7 -7 -7 -6 -6
5 5 5 5 4 5 5 5 4 4 3 2 1 0 -2 -4 -6 -7 -8 -8 -8 -8 -8 -8 -8 -8 -7 -7 -7 -7 -7 -6
5 5 5 5 5 6 6 6 6 5 5 4 3 2 1 -1 -3 -5 -7 -7 -8 -8 -8 -8 -8 -8 -7 -7 -7 -7 -7 -6
5 5 5 6 6 7 7 7 7 7 7 6 5 4 3 1 -0 -2 -4 -6 -7 -7 -8 -8 -8 -7 -7 -7 -7 -7 -6 -6
4 5 6 6 7 7 7 7 8 8 7 7 7 6 5 3 2 0 -2 -4 -5 -6 -7 -7 -8 -7 -7 -6 -7 -7 -6 -6
4 5 6 7 7 7 7 7 7 7 7 7 7 7 6 5 4 3 1 -1 -4 -5 -6 -7 -7 -7 -6 -6 -6 -6 -6 -5
4 5 6 7 7 8 7 7 7 7 7 7 7 7 6 6 5 4 3 1 -1 -3 -5 -6 -6 -6 -6 -6 -6 -6 -5 -5
4 5 6 7 7 7 7 7 7 7 7 7 7 6 6 6 5 5 5 4 2 -1 -4 -5 -6 -6 -6 -6 -6 -6 -5 -5
5 6 7 7 8 8 7 7 7 7 7 7 7 6 6 5 5 5 4 4 3 1 -2 -4 -5 -6 -6 -6 -6 -6 -5 -5
6 6 7 8 9 8 8 8 7 7 7 7 7 6 6 6 5 4 4 4 3 2 -0 -3 -5 -6 -6 -6 -6 -6 -5 -5
6 7 8 9 9 9 8 8 8 8 8 8 7 7 7 6 5 4 3 3 2 2 0 -3 -5 -6 -6 -6 -6 -5 -5 -5
7 8 9 9 9 9 9 9 9 9 9 8 8 7 7 6 4 3 2 1 0 0 -1 -3 -5 -6 -6 -6 -6 -5 -5 -5
9 9 9 9 9 9 9 10 10 10 9 9 8 7 6 5 3 2 1 -0 -1 -2 -3 -4 -5 -6 -6 -6 -6 -5 -5 -5
9 10 9 9 9 9 10 10 10 10 9 9 8 7 6 5 3 2 1 0 -1 -2 -3 -5 -5 -5 -5 -6 -6 -5 -5 -5
9 9 9 9 9 9 10 11 11 11 10 9 8 7 6 5 4 3 2 2 1 1 -1 -3 -4 -4 -5 -5 -5 -5 -5 -5
9 9 8 8 9 9 10 12 12 11 11 10 9 9 7 6 5 4 3 3 2 2 0 -1 -2 -3 -4 -4 -5 -5 -5 -4
8 8 8 8 8 9 11 12 13 12 12 11 10 10 9 8 7 6 5 3 2 1 0 -0 -1 -2 -3 -4 -4 -4 -4 -3
7 8 8 8 9 10 11 13 13 13 12 12 11 11 10 10 9 8 7 5 4 2 1 0 -1 -1 -2 -3 -3 -3 -3 -3
7 8 8 9 10 11 12 13 14 13 12 12 12 12 11 11 11 10 9 7 6 5 3 1 -0 -1 -1 -2 -2 -2 -2 -2